906  
ASUS41 KPHI 222212  
RWRPHI  
 
REGIONAL WEATHER ROUNDUP  
NATIONAL WEATHER SERVICE MOUNT HOLLY NJ  
500 PM EST FRI FEB 22 2019  
 
NOTE: "FAIR" INDICATES FEW OR NO CLOUDS BELOW 12,000 FEET WITH NO  
SIGNIFICANT WEATHER AND/OR S TO VISIBILITY
.  
 
* = STATION DOES NOT REPORT PRECIPITATION (E.G. RAIN, SNOW, ETC.)  
OR FOG.
 
 
NJZ015>026-222300-  
SOUTHERN NEW JERSEY  
 
CITY SKY/WX TMP DP RH WIND PRES REMARKS
 
POMONA FAIR 45 28 51 N3 30.37S  
WILDWOOD* FAIR 43 28 55 NW5 30.39S  
MILLVILLE FAIR 45 27 49 CALM 30.37S  
WRIGHTSTOWN FAIR 43 25 49 N7 30.34S  
MOUNT HOLLY FAIR 44 24 45 N6 30.38R  
TRENTON FAIR 45 23 42 NW5 30.37S  
 

 
NJZ001>014-222300-  
NORTHERN NEW JERSEY  
 
CITY SKY/WX TMP DP RH WIND PRES REMARKS
 
SUSSEX FAIR 38 23 55 VRB6 30.38R WCI 33  
ANDOVER* N/A 39 21 48 N7 30.37R WCI 34  
MORRISTOWN CLOUDY 43 23 45 N7 30.38S  
NEWARK CLOUDY 44 20 38 NW10 30.37S  
TETERBORO FAIR 43 23 45 NW13G21 30.36S  
CALDWELL FAIR 42 21 43 NW9 30.38R  
SOMERVILLE FAIR 43 22 43 NW7 30.36S  
ALLAIRE* FAIR 43 24 47 NW6 30.38R  
TOMS RIVER* FAIR 44 25 47 NW5 30.38S  
 

 
PAZ043-044-047-054-055-060>062-066>071-222300-  
EASTERN PENNSYLVANIA  
 
CITY SKY/WX TMP DP RH WIND PRES REMARKS
 
PHILADELPHIA CLOUDY 45 24 43 N7 30.38S  
NORTH PHILA FAIR 45 24 43 N9 30.39S  
BLUE BELL* FAIR 41 27 56 CALM 30.39S  
DOYLESTOWN FAIR 42 22 44 N5 30.36S  
QUAKERTOWN* CLEAR 41 23 48 NW6 30.38  
PERKASIE* FAIR 41 21 45 NW8 30.38R  
POTTSTOWN FAIR 42 24 49 N5 30.39R  
LANCASTER FAIR 44 27 51 N5 30.39R  
COATESVILLE FAIR 41 25 52 NW8 30.38S  
READING FAIR 43 28 55 NW6 30.38R  
ALLENTOWN FAIR 43 23 45 N8 30.38R  
MOUNT POCONO FAIR 31 21 66 NW14 30.32S WCI 21  
HAZLETON FAIR 34 21 60 N5 30.37R WCI 30  
LEHIGHTON FAIR 41 23 48 N6 30.39R  
WILKES BARRE FAIR 36 22 56 N10 30.39R WCI 28  
 

 
DEZALL-MDZ008-012-015-019-020-222300-  
DELAWARE AND EASTERN MARYLAND  
 
CITY SKY/WX TMP DP RH WIND PRES REMARKS
 
WILMINGTON FAIR 44 26 49 NW7 30.39S  
DOVER FAIR 45 27 50 NW6 30.38S  
GEORGETOWN FAIR 48 32 53 NE6 30.38S  
EASTON MOCLDY 46 27 46 NW3 30.42F  
ABERDEEN CLOUDY 43 25 49 NW5 30.40S  
PATUXENT CLOUDY 46 30 53 N5 30.37  
OCEAN CITY FAIR 42 32 67 NE5 30.38S  
WALLOPS ISLAND CLOUDY 44 36 73 E7 30.39R  
CAMBRIDGE CLEAR 46 27 46 MISG 30.38F  
SALISBURY FAIR 48 34 58 N5 30.37F  
 

 
PAZ001-021-NYZ056-072-MDZ011-DCZ001-222300-  
OTHER NEARBY LOCATIONS  
 
CITY SKY/WX TMP DP RH WIND PRES REMARKS
 
HARRISBURG CLOUDY 43 24 47 N5 30.38R  
STATE COLLEGE CLEAR 39 21 48 CALM 30.36S  
WILLIAMSPORT FAIR 41 20 43 N7 30.39R  
BINGHAMTON CLOUDY 29 20 69 N8 30.37S WCI 21  
NEW YORK CITY FAIR 43 21 41 MISG 30.38S  
BALTIMORE CLOUDY 46 26 45 VRB3 30.37F  
WASHINGTON DC CLOUDY 48 28 46 NW8 30.39S  
 

 
 
 
CLICK HERE TO GO TO PREVIOUS BULLETINS.

The Nexlab PA Page
The Nexlab NJ Page
The Nexlab DE Page
The Nexlab MD Page Main Text Page